User: anonymous
Location: Caltech
(34.1382°N, 118.1253°W)
Time: 10:53:00
(UTC-07:00)
Language:

KITSAT 1 - Orbit

View from above orbital plane
View from above orbital plane
View from above satellite
View from above satellite

Ground track
Ground track

The orbit data is extracted from the following two-line orbital elements,

1 22077U 92052B   14260.48729542 -.00000060  00000-0  61579-5 0  7077
2 22077 066.0832 268.9310 0004336 196.6118 318.0205 12.86495163 38276
Epoch (UTC): 17 September 2014 11:41:42
Eccentricity: 0.0004336
inclination: 66.0832°
perigee height: 1312 km
apogee height: 1319 km
right ascension of ascending node: 268.9310°
argument of perigee: 196.6118°
revolutions per day: 12.86495163
mean anomaly at epoch: 318.0205°
orbit number at epoch: 3827

The dashed part of the orbit path shows where the satellite is in the earth's shadow,  

DLR